Mobile, AL

12:26 AM CDT on October 21, 2017 (GMT -0500)
Mobile Regional

Weather History for KMOB - March, 2013

Change the Weather History Date:

Wednesday, March 20, 2013

  Actual Average Record
Temperature  
Mean Temperature 54 °F 61 °F  
Max Temperature 67 °F 72 °F 84 °F (2004)
Min Temperature 41 °F 50 °F 30 °F (1923)
Degree Days  
Heating Degree Days 11 5  
Month to date heating degree days 207 139  
Since 1 July heating degree days 1383 1581  
Cooling Degree Days 0 1  
Month to date cooling degree days 9 20  
Year to date cooling degree days 36 36  
Growing Degree Days 6 (Base 50)    
Moisture  
Dew Point 32 °F    
Average Humidity 40    
Maximum Humidity 58    
Minimum Humidity 22    
Precipitation  
Precipitation T in 0.20 in 2.78 in (1985)
Month to date precipitation 0.27 3.97  
Year to date precipitation 14.45 14.74  
Snow  
Snow 0.00 in 0.00 in - ()
Month to date snowfall 0.0 0.1  
Since 1 July snowfall 0.0 0.2  
Snow Depth 0.00 in    
Sea Level Pressure  
Sea Level Pressure 30.05 in    
Wind  
Wind Speed 9 mph (North)    
Max Wind Speed 14 mph    
Max Gust Speed 20 mph    
Visibility 10 miles    
Events Rain    
T = Trace of Precipitation, MM = Missing Value Source: NWS Daily Summary

Daily Weather History Graph

Daily Weather History Graph

Search for Another Location

Airport or City:

Trip Planner

Search our weather history database for the weather conditions in past years. The results will help you decide how hot, cold, wet, or windy it might be!

Date:

Astronomy

Mar. 20, 2013 Rise Set
Actual Time 6:56 AM CDT 7:04 PM CDT
Civil Twilight 6:32 AM CDT 7:28 PM CDT
Nautical Twilight 6:04 AM CDT 7:56 PM CDT
Astronomical Twilight 5:36 AM CDT 8:25 PM CDT
Moon 1:00 PM CDT (3/20) 2:14 AM CDT (3/20)
Length of Visible Light 12h 56m
Length of Day
12h 08m
First Quarter, 59% of the Moon is Illuminated
Mar 20
First Quarter
Mar 27
Full
Apr 2
Last Quarter
Apr 10
New
Apr 18
First Quarter

Hourly Weather History & Observations

Time (CDT) Temp. Dew Point Humidity Pressure Visibility Wind Dir Wind Speed Gust Speed Precip Events Conditions
12:56 AM 59.0 °F 37.9 °F 46% 30.01 in 10.0 mi NNE 6.9 mph - N/A   Mostly Cloudy
1:56 AM 57.9 °F 36.0 °F 44% 30.00 in 10.0 mi NNE 9.2 mph - N/A   Clear
2:56 AM 57.9 °F 35.1 °F 42% 30.00 in 10.0 mi NE 6.9 mph - N/A   Scattered Clouds
3:56 AM 57.0 °F 34.0 °F 42% 29.99 in 10.0 mi NNE 8.1 mph - N/A   Clear
4:29 AM 57.2 °F 33.8 °F 41% 30.00 in 10.0 mi NNE 9.2 mph 132.3 mph N/A   Squalls
4:56 AM 57.0 °F 33.1 °F 40% 30.01 in 10.0 mi NNE 9.2 mph - N/A   Partly Cloudy
5:56 AM 55.9 °F 33.1 °F 42% 30.05 in 10.0 mi NNE 8.1 mph - N/A   Mostly Cloudy
6:56 AM 55.0 °F 33.1 °F 43% 30.08 in 10.0 mi NNE 9.2 mph - N/A   Overcast
7:56 AM 55.0 °F 33.1 °F 43% 30.12 in 10.0 mi North 10.4 mph - N/A   Overcast
8:56 AM 55.9 °F 32.0 °F 40% 30.11 in 10.0 mi NNE 13.8 mph - N/A   Mostly Cloudy
9:56 AM 59.0 °F 30.9 °F 35% 30.09 in 10.0 mi NE 10.4 mph - N/A   Mostly Cloudy
10:56 AM 57.0 °F 35.1 °F 44% 30.12 in 7.0 mi North 5.8 mph - 0.00 in Rain Light Rain
11:56 AM 59.0 °F 35.1 °F 41% 30.10 in 7.0 mi NNW 8.1 mph - 0.00 in   Overcast
12:56 PM 60.1 °F 35.1 °F 39% 30.09 in 10.0 mi North 11.5 mph - N/A   Overcast
1:56 PM 61.0 °F 34.0 °F 36% 30.09 in 10.0 mi North 10.4 mph - N/A   Overcast
2:56 PM 64.9 °F 34.0 °F 32% 30.05 in 10.0 mi North 12.7 mph - N/A   Mostly Cloudy
3:56 PM 66.0 °F 30.9 °F 27% 30.03 in 10.0 mi NNW 11.5 mph 20.7 mph N/A   Scattered Clouds
4:56 PM 66.0 °F 28.0 °F 24% 30.01 in 10.0 mi North 11.5 mph 19.6 mph N/A   Partly Cloudy
5:56 PM 64.0 °F 25.0 °F 23% 30.01 in 10.0 mi North 10.4 mph - N/A   Clear
6:56 PM 59.0 °F 28.0 °F 31% 30.02 in 10.0 mi NNW 10.4 mph - N/A   Clear
7:56 PM 55.0 °F 28.0 °F 35% 30.03 in 10.0 mi NNW 4.6 mph - N/A   Scattered Clouds
8:56 PM 48.0 °F 30.9 °F 52% 30.04 in 10.0 mi Calm Calm - N/A   Partly Cloudy
9:56 PM 46.0 °F 32.0 °F 58% 30.04 in 8.0 mi Calm Calm - N/A   Partly Cloudy
10:56 PM 48.9 °F 28.9 °F 46% 30.05 in 10.0 mi NNW 10.4 mph - N/A   Clear
11:56 PM 51.1 °F 26.1 °F 38% 30.05 in 10.0 mi North 9.2 mph - N/A   Clear